sampling_time,wmo_synop_id,msc_id,stn_nam,stn_elev,lat,long,stn_typ,date_tm,rpt_typ,result_time,crnt_buoy_lat,crnt_buoy_lat_qa_summary,crnt_buoy_long,crnt_buoy_long_qa_summary,avg_air_temp_pst10mts,avg_air_temp_pst10mts_qa_summary,avg_sea_sfc_temp_pst10mts,avg_sea_sfc_temp_pst10mts_qa_summary,avg_batry_volt_pst10mts,avg_batry_volt_pst10mts_qa_summary,avg_solr_panl_crnt_pst10mts,avg_solr_panl_crnt_pst10mts_qa_summary,avg_wtr_lvl_snsr_volt_pst10mts,avg_wtr_lvl_snsr_volt_pst10mts_qa_summary,avg_wave_hgt_pst20mts,avg_wave_hgt_pst20mts_qa_summary,pk_wave_hgt_pst20mts,pk_wave_hgt_pst20mts_qa_summary,sig_wave_pd_pst20mts,sig_wave_pd_pst20mts_qa_summary,sig_wave_hgt_pst20mts,sig_wave_hgt_pst20mts_qa_summary,avg_max_wave_hgt_pst20mts,avg_max_wave_hgt_pst20mts_qa_summary,avg_max_wave_pd_pst20mts,avg_max_wave_pd_pst20mts_qa_summary,avg_wave_pd_pst20mts,avg_wave_pd_pst20mts_qa_summary,pk_wave_pd_pst20mts,pk_wave_pd_pst20mts_qa_summary,avg_stn_pres_pst10mts,avg_stn_pres_pst10mts_qa_summary,avg_wnd_spd_pst10mts,avg_wnd_spd_pst10mts_qa_summary,avg_wnd_dir_pst10mts,avg_wnd_dir_pst10mts_qa_summary,max_avg_wnd_spd_pst10mts,max_avg_wnd_spd_pst10mts_qa_summary,wnd_snsr_vert_disp,wnd_snsr_vert_disp_qa_summary,pres_tend_char_pst3hrs,pres_tend_char_pst3hrs_data_flag,pres_tend_amt_pst3hrs,pres_tend_amt_pst3hrs_data_flag,avg_mslp_pst10mts,avg_mslp_pst10mts_data_flag,avg_stn_pres_pst10mts_1,avg_stn_pres_pst10mts_1_qa_summary,avg_stn_pres_pst10mts_2,avg_stn_pres_pst10mts_2_qa_summary,avg_wnd_spd_pst10mts_1,avg_wnd_spd_pst10mts_1_qa_summary,avg_wnd_spd_pst10mts_2,avg_wnd_spd_pst10mts_2_qa_summary,avg_wnd_dir_pst10mts_1,avg_wnd_dir_pst10mts_1_qa_summary,avg_wnd_dir_pst10mts_2,avg_wnd_dir_pst10mts_2_qa_summary,max_avg_wnd_spd_pst10mts_1,max_avg_wnd_spd_pst10mts_1_qa_summary,max_avg_wnd_spd_pst10mts_2,max_avg_wnd_spd_pst10mts_2_qa_summary
2022-02-18T00:00:00Z,44488,9302000,EAST CHEDABUCTO BAY,0,45.445,-60.9538,18,2022-02-18T00:00:00.000Z,108,2022-02-18T00:05:29.731Z,45.44572,100,-60.953869999999995,100,5.9,100,1.7,100,12.7,100,0.0,100,2.8,100,0.8,100,2.0,100,4.9,100,1.2,100,1.5,100,5.0,100,4.3,100,10.0,100,1017.1,100,,-1,,-1,,-1,4,100,8,1,-0.9,1,1017.1,1,1017.1,100,1017.1,100,,-10,,100,,-10,,100,,-10,,100
2022-02-18T00:10:00Z,44488,9302000,EAST CHEDABUCTO BAY,0,45.445,-60.9538,18,2022-02-18T00:10:00.000Z,110,2022-02-18T00:15:24.339Z,,-1,,-1,6.7,100,2.7,100,12.7,100,0.0,100,2.8,100,,-1,,-1,,-1,,-1,,-1,,-1,,-1,,-1,1016.5,100,,-1,,-1,,-1,4,100,8,1,-1.4,1,1016.5,1,1016.5,100,1016.5,100,,-10,,100,,-10,,100,,-10,,100
2022-02-18T00:20:00Z,44488,9302000,EAST CHEDABUCTO BAY,0,45.445,-60.9538,18,2022-02-18T00:20:00.000Z,110,2022-02-18T00:26:26.343Z,45.44573,100,-60.95388000000001,100,5.8,100,1.7,100,12.7,100,0.0,100,2.8,100,,-1,,-1,,-1,,-1,,-1,,-1,,-1,,-1,1016.4,100,,-1,,-1,,-1,4,100,8,1,-1.4,1,1016.4,1,1016.4,100,1016.4,100,,-10,,100,,-10,,100,,-10,,100
2022-02-18T00:30:00Z,44488,9302000,EAST CHEDABUCTO BAY,0,45.445,-60.9538,18,2022-02-18T00:30:00.000Z,110,2022-02-18T00:36:30.682Z,45.44573,100,-60.95387,100,6.0,100,1.7,100,12.7,100,0.0,100,2.8,100,,-1,,-1,,-1,,-1,,-1,,-1,,-1,,-1,1016.4,100,,-1,,-1,,-1,4,100,8,1,-1.3,1,1016.4,1,1016.4,100,1016.4,100,,-10,,100,,-10,,100,,-10,,100
2022-02-18T00:40:00Z,44488,9302000,EAST CHEDABUCTO BAY,0,45.445,-60.9538,18,2022-02-18T00:40:00.000Z,110,2022-02-18T00:45:32.408Z,45.44573,100,-60.95388000000001,100,6.1,100,1.7,100,12.6,100,0.0,100,2.8,100,,-1,,-1,,-1,,-1,,-1,,-1,,-1,,-1,1016.3,100,,-1,,-1,,-1,4,100,8,1,-1.5,1,1016.3,1,1016.3,100,1016.3,100,,-10,,100,,-10,,100,,-10,,100
2022-02-18T00:50:00Z,44488,9302000,EAST CHEDABUCTO BAY,0,45.445,-60.9538,18,2022-02-18T00:50:00.000Z,110,2022-02-18T00:55:33.442Z,45.44575,100,-60.95387,100,6.0,100,1.7,100,12.6,100,0.0,100,2.8,100,,-1,,-1,,-1,,-1,,-1,,-1,,-1,,-1,1016.4,100,,-1,,-1,,-1,4,100,8,1,-1.4,1,1016.4,1,1016.4,100,1016.4,100,,-10,,100,,-10,,100,,-10,,100
2022-02-18T01:00:00Z,44488,9302000,EAST CHEDABUCTO BAY,0,45.445,-60.9538,18,2022-02-18T01:00:00.000Z,108,2022-02-18T01:05:56.289Z,45.44573,100,-60.95385,100,6.0,100,1.7,100,12.7,100,0.0,100,2.8,100,0.8,100,2.0,100,4.6,100,1.2,100,1.5,100,4.7,100,3.9,100,4.4,100,1016.6,100,,-1,,-1,,-1,4,100,8,1,-1.2,1,1016.6,1,1016.6,100,1016.6,100,,-10,,100,,-10,,100,,-10,,100
2022-02-18T01:10:00Z,44488,9302000,EAST CHEDABUCTO BAY,0,45.445,-60.9538,18,2022-02-18T01:10:00.000Z,110,2022-02-18T01:18:51.190Z,45.44577,100,-60.95387,100,6.0,100,1.7,100,12.7,100,0.0,100,2.8,100,,-1,,-1,,-1,,-1,,-1,,-1,,-1,,-1,1016.6,100,,-1,,-1,,-1,4,100,5,1,-1.2,1,1016.6,1,1016.6,100,1016.6,100,,-10,,100,,-10,,100,,-10,,100
2022-02-18T01:20:00Z,44488,9302000,EAST CHEDABUCTO BAY,0,45.445,-60.9538,18,2022-02-18T01:20:00.000Z,110,2022-02-18T01:25:54.839Z,45.44575,100,-60.953869999999995,100,5.9,100,1.7,100,12.7,100,0.0,100,2.8,100,,-1,,-1,,-1,,-1,,-1,,-1,,-1,,-1,1016.4,100,,-1,,-1,,-1,4,100,6,1,-1.8,1,1016.4,1,1016.4,100,1016.4,100,,-10,,100,,-10,,100,,-10,,100
2022-02-18T01:30:00Z,44488,9302000,EAST CHEDABUCTO BAY,0,45.445,-60.9538,18,2022-02-18T01:30:00.000Z,110,2022-02-18T01:35:58.384Z,45.44568,100,-60.95378,100,5.9,100,1.7,100,12.7,100,0.0,100,2.8,100,,-1,,-1,,-1,,-1,,-1,,-1,,-1,,-1,1016.1,100,,-1,,-1,,-1,4,100,7,1,-2.2,1,1016.1,1,1016.1,100,1016.1,100,,-10,,100,,-10,,100,,-10,,100
2022-02-18T01:40:00Z,44488,9302000,EAST CHEDABUCTO BAY,0,45.445,-60.9538,18,2022-02-18T01:40:00.000Z,110,2022-02-18T01:44:55.481Z,45.44573,100,-60.953869999999995,100,6.0,100,1.7,100,12.6,100,0.0,100,2.8,100,,-1,,-1,,-1,,-1,,-1,,-1,,-1,,-1,1016.1,100,,-1,,-1,,-1,4,100,6,1,-1.8,1,1016.1,1,1016.1,100,1016.1,100,,-10,,100,,-10,,100,,-10,,100
2022-02-18T01:50:00Z,44488,9302000,EAST CHEDABUCTO BAY,0,45.445,-60.9538,18,2022-02-18T01:50:00.000Z,110,2022-02-18T01:55:01.790Z,45.44575,100,-60.95381999999999,100,5.9,100,1.7,100,12.6,100,0.0,100,2.8,100,,-1,,-1,,-1,,-1,,-1,,-1,,-1,,-1,1016.1,100,,-1,,-1,,-1,4,100,6,1,-1.8,1,1016.1,1,1016.1,100,1016.1,100,,-10,,100,,-10,,100,,-10,,100
2022-02-18T02:00:00Z,44488,9302000,EAST CHEDABUCTO BAY,0,45.445,-60.9538,18,2022-02-18T02:00:00.000Z,108,2022-02-18T02:05:02.739Z,45.44573,100,-60.9538,100,5.6,100,1.7,100,12.6,100,0.0,100,2.8,100,0.8,100,2.5,100,4.5,100,1.3,100,1.6,100,4.6,100,4.1,100,4.2,100,1016.2,100,,-1,,-1,,-1,4,100,6,1,-1.6,1,1016.2,1,1016.2,100,1016.2,100,,-10,,100,,-10,,100,,-10,,100
2022-02-18T02:10:00Z,44488,9302000,EAST CHEDABUCTO BAY,0,45.445,-60.9538,18,2022-02-18T02:10:00.000Z,110,2022-02-18T02:18:02.816Z,45.44572,100,-60.95387,100,5.7,100,1.7,100,12.6,100,0.0,100,2.8,100,,-1,,-1,,-1,,-1,,-1,,-1,,-1,,-1,1015.9,100,,-1,,-1,,-1,4,100,6,1,-1.8,1,1015.9,1,1015.9,100,1015.8,100,,-10,,100,,-10,,100,,-10,,100
2022-02-18T02:20:00Z,44488,9302000,EAST CHEDABUCTO BAY,0,45.445,-60.9538,18,2022-02-18T02:20:00.000Z,110,2022-02-18T02:24:59.254Z,45.44572,100,-60.953869999999995,100,5.8,100,1.7,100,12.7,100,0.0,100,2.8,100,,-1,,-1,,-1,,-1,,-1,,-1,,-1,,-1,1015.8,100,,-1,,-1,,-1,4,100,6,1,-2.1,1,1015.8,1,1015.8,100,1015.8,100,,-10,,100,,-10,,100,,-10,,100
2022-02-18T02:30:00Z,44488,9302000,EAST CHEDABUCTO BAY,0,45.445,-60.9538,18,2022-02-18T02:30:00.000Z,110,2022-02-18T02:35:01.072Z,45.44573,100,-60.95385,100,6.0,100,1.7,100,12.6,100,0.0,100,2.8,100,,-1,,-1,,-1,,-1,,-1,,-1,,-1,,-1,1015.5,100,,-1,,-1,,-1,4,100,6,1,-2.5,1,1015.5,1,1015.5,100,1015.5,100,,-10,,100,,-10,,100,,-10,,100
2022-02-18T02:40:00Z,44488,9302000,EAST CHEDABUCTO BAY,0,45.445,-60.9538,18,2022-02-18T02:40:00.000Z,110,2022-02-18T02:45:03.154Z,45.44577,100,-60.95385,100,6.2,100,1.8,100,12.6,100,0.0,100,2.8,100,,-1,,-1,,-1,,-1,,-1,,-1,,-1,,-1,1015.2,100,,-1,,-1,,-1,4,100,6,1,-2.5,1,1015.2,1,1015.2,100,1015.2,100,,-10,,100,,-10,,100,,-10,,100
2022-02-18T02:50:00Z,44488,9302000,EAST CHEDABUCTO BAY,0,45.445,-60.9538,18,2022-02-18T02:50:00.000Z,110,2022-02-18T02:55:06.487Z,45.44577,100,-60.95387,100,6.3,100,1.8,100,12.6,100,0.0,100,2.8,100,,-1,,-1,,-1,,-1,,-1,,-1,,-1,,-1,1015.0,100,,-1,,-1,,-1,4,100,8,1,-2.3,1,1015.0,1,1015.0,100,1015.0,100,,-10,,100,,-10,,100,,-10,,100
2022-02-18T03:00:00Z,44488,9302000,EAST CHEDABUCTO BAY,0,45.445,-60.9538,18,2022-02-18T03:00:00.000Z,108,2022-02-18T03:05:05.332Z,45.44575,100,-60.95388000000001,100,6.3,100,1.8,100,12.6,100,0.0,100,2.8,100,1.0,100,2.0,100,4.9,100,1.4,100,1.7,100,4.8,100,4.2,100,28.6,0,1014.8,100,,-1,,-1,,-1,4,100,8,1,-2.3,1,1014.8,1,1014.8,100,1014.8,100,,-10,,100,,-10,,100,,-10,,100
2022-02-18T03:10:00Z,44488,9302000,EAST CHEDABUCTO BAY,0,45.445,-60.9538,18,2022-02-18T03:10:00.000Z,110,2022-02-18T03:19:18.250Z,45.44578,100,-60.95388000000001,100,6.2,100,1.8,100,12.6,100,0.0,100,2.8,100,,-1,,-1,,-1,,-1,,-1,,-1,,-1,,-1,1014.1,100,,-1,,-1,,-1,4,100,8,1,-2.4,1,1014.1,1,1014.1,100,1014.1,100,,-10,,100,,-10,,100,,-10,,100
2022-02-18T03:20:00Z,44488,9302000,EAST CHEDABUCTO BAY,0,45.445,-60.9538,18,2022-02-18T03:20:00.000Z,110,2022-02-18T03:25:26.597Z,45.44578,100,-60.95388000000001,100,6.1,100,1.8,100,12.6,100,0.0,100,2.8,100,,-1,,-1,,-1,,-1,,-1,,-1,,-1,,-1,1014.0,100,,-1,,-1,,-1,4,100,8,1,-2.4,1,1014.0,1,1014.0,100,1014.0,100,,-10,,100,,-10,,100,,-10,,100
2022-02-18T03:30:00Z,44488,9302000,EAST CHEDABUCTO BAY,0,45.445,-60.9538,18,2022-02-18T03:30:00.000Z,110,2022-02-18T03:35:33.807Z,45.4458,100,-60.9539,100,5.9,100,1.8,100,12.6,100,0.0,100,2.8,100,,-1,,-1,,-1,,-1,,-1,,-1,,-1,,-1,1014.0,100,,-1,,-1,,-1,4,100,8,1,-2.5,1,1014.0,1,1014.0,100,1013.9,100,,-10,,100,,-10,,100,,-10,,100
2022-02-18T03:40:00Z,44488,9302000,EAST CHEDABUCTO BAY,0,45.445,-60.9538,18,2022-02-18T03:40:00.000Z,110,2022-02-18T03:45:36.055Z,45.44582,100,-60.95392,100,5.8,100,1.8,100,12.6,100,0.0,100,2.8,100,,-1,,-1,,-1,,-1,,-1,,-1,,-1,,-1,1013.7,100,,-1,,-1,,-1,4,100,8,1,-2.6,1,1013.7,1,1013.7,100,1013.7,100,,-10,,100,,-10,,100,,-10,,100
2022-02-18T03:50:00Z,44488,9302000,EAST CHEDABUCTO BAY,0,45.445,-60.9538,18,2022-02-18T03:50:00.000Z,110,2022-02-18T03:55:34.664Z,45.4458,100,-60.95387,100,5.8,100,1.8,100,12.6,100,0.0,100,2.8,100,,-1,,-1,,-1,,-1,,-1,,-1,,-1,,-1,1013.5,100,,-1,,-1,,-1,4,100,8,1,-2.9,1,1013.5,1,1013.5,100,1013.5,100,,-10,,100,,-10,,100,,-10,,100
2022-02-18T04:00:00Z,44488,9302000,EAST CHEDABUCTO BAY,0,45.445,-60.9538,18,2022-02-18T04:00:00.000Z,108,2022-02-18T04:05:37.399Z,45.44582,100,-60.95388000000001,100,5.9,100,1.8,100,12.6,100,0.0,100,2.8,100,1.1,100,2.5,100,4.6,100,1.6,100,1.9,100,4.9,100,4.3,100,4.9,100,1013.4,100,,-1,,-1,,-1,4,100,8,1,-3.3,1,1013.4,1,1013.4,100,1013.3,100,,-10,,100,,-10,,100,,-10,,100
2022-02-18T04:10:00Z,44488,9302000,EAST CHEDABUCTO BAY,0,45.445,-60.9538,18,2022-02-18T04:10:00.000Z,110,2022-02-18T04:19:40.141Z,45.44573,100,-60.95381999999999,100,5.8,100,1.8,100,12.6,100,0.0,100,2.8,100,,-1,,-1,,-1,,-1,,-1,,-1,,-1,,-1,1013.1,100,,-1,,-1,,-1,4,100,8,1,-3.5,1,1013.1,1,1013.1,100,1013.1,100,,-10,,100,,-10,,100,,-10,,100
2022-02-18T04:20:00Z,44488,9302000,EAST CHEDABUCTO BAY,0,45.445,-60.9538,18,2022-02-18T04:20:00.000Z,110,2022-02-18T04:25:44.533Z,45.44573,100,-60.9538,100,5.8,100,1.8,100,12.6,100,0.0,100,2.8,100,,-1,,-1,,-1,,-1,,-1,,-1,,-1,,-1,1013.2,100,,-1,,-1,,-1,4,100,8,1,-3.2,1,1013.2,1,1013.2,100,1013.2,100,,-10,,100,,-10,,100,,-10,,100
2022-02-18T04:30:00Z,44488,9302000,EAST CHEDABUCTO BAY,0,45.445,-60.9538,18,2022-02-18T04:30:00.000Z,110,2022-02-18T04:35:45.070Z,45.44577,100,-60.95381999999999,100,5.9,100,1.8,100,12.6,100,0.0,100,2.8,100,,-1,,-1,,-1,,-1,,-1,,-1,,-1,,-1,1013.3,100,,-1,,-1,,-1,4,100,8,1,-2.9,1,1013.3,1,1013.3,100,1013.2,100,,-10,,100,,-10,,100,,-10,,100
2022-02-18T04:40:00Z,44488,9302000,EAST CHEDABUCTO BAY,0,45.445,-60.9538,18,2022-02-18T04:40:00.000Z,110,2022-02-18T04:47:46.864Z,45.44573,100,-60.95385,100,5.7,100,1.8,100,12.6,100,0.0,100,2.8,100,,-1,,-1,,-1,,-1,,-1,,-1,,-1,,-1,1013.7,100,,-1,,-1,,-1,4,100,6,1,-2.4,1,1013.7,1,1013.7,100,1013.7,100,,-10,,100,,-10,,100,,-10,,100
2022-02-18T04:50:00Z,44488,9302000,EAST CHEDABUCTO BAY,0,45.445,-60.9538,18,2022-02-18T04:50:00.000Z,110,2022-02-18T04:55:41.316Z,45.44577,100,-60.95381999999999,100,5.6,100,1.8,100,12.6,100,0.0,100,2.8,100,,-1,,-1,,-1,,-1,,-1,,-1,,-1,,-1,1013.9,100,,-1,,-1,,-1,4,100,5,1,-2.3,1,1013.9,1,1013.9,100,1013.9,100,,-10,,100,,-10,,100,,-10,,100
2022-02-18T05:00:00Z,44488,9302000,EAST CHEDABUCTO BAY,0,45.445,-60.9538,18,2022-02-18T05:00:00.000Z,108,2022-02-18T05:04:48.566Z,45.44572,100,-60.95385,100,5.6,100,1.8,100,12.6,100,0.0,100,2.8,100,0.8,100,2.5,100,4.4,100,1.2,100,1.6,100,4.3,100,3.9,100,4.5,100,1013.8,100,,-1,,-1,,-1,4,100,5,1,-2.4,1,1013.8,1,1013.8,100,1013.8,100,,-10,,100,,-10,,100,,-10,,100
2022-02-18T05:10:00Z,44488,9302000,EAST CHEDABUCTO BAY,0,45.445,-60.9538,18,2022-02-18T05:10:00.000Z,110,2022-02-18T05:17:42.637Z,45.44573,100,-60.95381999999999,100,5.9,100,1.8,100,12.6,100,0.0,100,2.8,100,,-1,,-1,,-1,,-1,,-1,,-1,,-1,,-1,1013.5,100,,-1,,-1,,-1,4,100,5,1,-2.3,1,1013.5,1,1013.5,100,1013.5,100,,-10,,100,,-10,,100,,-10,,100
2022-02-18T05:20:00Z,44488,9302000,EAST CHEDABUCTO BAY,0,45.445,-60.9538,18,2022-02-18T05:20:00.000Z,110,2022-02-18T05:24:46.927Z,45.44573,100,-60.953869999999995,100,6.3,100,1.8,100,12.6,100,0.0,100,2.8,100,,-1,,-1,,-1,,-1,,-1,,-1,,-1,,-1,1013.2,100,,-1,,-1,,-1,4,100,6,1,-2.6,1,1013.2,1,1013.2,100,1013.2,100,,-10,,100,,-10,,100,,-10,,100
2022-02-18T05:30:00Z,44488,9302000,EAST CHEDABUCTO BAY,0,45.445,-60.9538,18,2022-02-18T05:30:00.000Z,110,2022-02-18T05:34:59.509Z,45.44573,100,-60.95385,100,6.1,100,1.8,100,12.6,100,0.0,100,2.8,100,,-1,,-1,,-1,,-1,,-1,,-1,,-1,,-1,1012.9,100,,-1,,-1,,-1,4,100,6,1,-2.6,1,1012.9,1,1012.9,100,1012.9,100,,-10,,100,,-10,,100,,-10,,100
2022-02-18T05:40:00Z,44488,9302000,EAST CHEDABUCTO BAY,0,45.445,-60.9538,18,2022-02-18T05:40:00.000Z,110,2022-02-18T05:45:05.097Z,45.44573,100,-60.95385,100,6.2,100,1.8,100,12.6,100,0.0,100,2.8,100,,-1,,-1,,-1,,-1,,-1,,-1,,-1,,-1,1012.5,100,,-1,,-1,,-1,4,100,6,1,-2.7,1,1012.5,1,1012.5,100,1012.5,100,,-10,,100,,-10,,100,,-10,,100
2022-02-18T05:50:00Z,44488,9302000,EAST CHEDABUCTO BAY,0,45.445,-60.9538,18,2022-02-18T05:50:00.000Z,110,2022-02-18T05:55:07.162Z,45.44573,100,-60.95383,100,6.5,100,1.8,100,12.5,100,0.0,100,2.8,100,,-1,,-1,,-1,,-1,,-1,,-1,,-1,,-1,1012.3,100,,-1,,-1,,-1,4,100,8,1,-2.8,1,1012.3,1,1012.3,100,1012.3,100,,-10,,100,,-10,,100,,-10,,100
2022-02-18T06:00:00Z,44488,9302000,EAST CHEDABUCTO BAY,0,45.445,-60.9538,18,2022-02-18T06:00:00.000Z,108,2022-02-18T06:05:12.384Z,45.44573,100,-60.95383,100,6.5,100,1.8,100,12.6,100,0.0,100,2.8,100,0.8,100,2.1,100,4.9,100,1.2,100,1.4,100,5.2,100,4.1,100,25.0,100,1012.0,100,,-1,,-1,,-1,4,100,8,1,-2.8,1,1012.0,1,1012.0,100,1012.0,100,,-10,,100,,-10,,100,,-10,,100
2022-02-18T06:10:00Z,44488,9302000,EAST CHEDABUCTO BAY,0,45.445,-60.9538,18,2022-02-18T06:10:00.000Z,110,2022-02-18T06:18:15.353Z,45.44575,100,-60.95381999999999,100,6.6,100,1.8,100,12.6,100,0.0,100,2.8,100,,-1,,-1,,-1,,-1,,-1,,-1,,-1,,-1,1011.7,100,,-1,,-1,,-1,4,100,8,1,-2.4,1,1011.7,1,1011.7,100,1011.7,100,,-10,,100,,-10,,100,,-10,,100
2022-02-18T06:20:00Z,44488,9302000,EAST CHEDABUCTO BAY,0,45.445,-60.9538,18,2022-02-18T06:20:00.000Z,110,2022-02-18T06:25:11.727Z,45.44578,100,-60.95383,100,6.8,100,1.8,100,12.6,100,0.0,100,2.8,100,,-1,,-1,,-1,,-1,,-1,,-1,,-1,,-1,1011.3,100,,-1,,-1,,-1,4,100,8,1,-2.7,1,1011.3,1,1011.3,100,1011.3,100,,-10,,100,,-10,,100,,-10,,100
2022-02-18T06:30:00Z,44488,9302000,EAST CHEDABUCTO BAY,0,45.445,-60.9538,18,2022-02-18T06:30:00.000Z,110,2022-02-18T06:35:15.217Z,45.4458,100,-60.95383,100,7.1,100,1.8,100,12.6,100,0.0,100,2.8,100,,-1,,-1,,-1,,-1,,-1,,-1,,-1,,-1,1011.1,100,,-1,,-1,,-1,4,100,8,1,-2.9,1,1011.1,1,1011.1,100,1011.1,100,,-10,,100,,-10,,100,,-10,,100
2022-02-18T06:40:00Z,44488,9302000,EAST CHEDABUCTO BAY,0,45.445,-60.9538,18,2022-02-18T06:40:00.000Z,110,2022-02-18T06:45:12.846Z,45.44577,100,-60.95383,100,7.3,100,1.8,100,12.5,100,0.0,100,2.8,100,,-1,,-1,,-1,,-1,,-1,,-1,,-1,,-1,1010.7,100,,-1,,-1,,-1,4,100,8,1,-3.0,1,1010.7,1,1010.7,100,1010.6,100,,-10,,100,,-10,,100,,-10,,100
2022-02-18T06:50:00Z,44488,9302000,EAST CHEDABUCTO BAY,0,45.445,-60.9538,18,2022-02-18T06:50:00.000Z,110,2022-02-18T06:55:20.272Z,45.44573,100,-60.95383,100,7.3,100,1.8,100,12.5,100,0.0,100,2.8,100,,-1,,-1,,-1,,-1,,-1,,-1,,-1,,-1,1010.4,100,,-1,,-1,,-1,4,100,8,1,-3.1,1,1010.4,1,1010.4,100,1010.4,100,,-10,,100,,-10,,100,,-10,,100
2022-02-18T07:00:00Z,44488,9302000,EAST CHEDABUCTO BAY,0,45.445,-60.9538,18,2022-02-18T07:00:00.000Z,108,2022-02-18T07:05:22.234Z,45.44575,100,-60.95383,100,7.4,100,1.8,100,12.6,100,0.0,100,2.8,100,0.8,100,1.7,100,4.5,100,1.2,100,1.5,100,4.6,100,3.9,100,3.8,100,1010.1,100,,-1,,-1,,-1,4,100,8,1,-3.3,1,1010.1,1,1010.1,100,1010.1,100,,-10,,100,,-10,,100,,-10,,100
2022-02-18T07:10:00Z,44488,9302000,EAST CHEDABUCTO BAY,0,45.445,-60.9538,18,2022-02-18T07:10:00.000Z,110,2022-02-18T07:18:18.842Z,45.4458,100,-60.95383,100,7.3,100,1.8,100,12.5,100,0.0,100,2.8,100,,-1,,-1,,-1,,-1,,-1,,-1,,-1,,-1,1009.9,100,,-1,,-1,,-1,4,100,8,1,-3.3,1,1009.9,1,1009.9,100,1009.9,100,,-10,,100,,-10,,100,,-10,,100
2022-02-18T07:20:00Z,44488,9302000,EAST CHEDABUCTO BAY,0,45.445,-60.9538,18,2022-02-18T07:20:00.000Z,110,2022-02-18T07:25:20.297Z,45.44582,100,-60.95385,100,7.6,100,1.8,100,12.6,100,0.0,100,2.8,100,,-1,,-1,,-1,,-1,,-1,,-1,,-1,,-1,1009.6,100,,-1,,-1,,-1,4,100,8,1,-3.5,1,1009.6,1,1009.6,100,1009.6,100,,-10,,100,,-10,,100,,-10,,100
2022-02-18T07:30:00Z,44488,9302000,EAST CHEDABUCTO BAY,0,45.445,-60.9538,18,2022-02-18T07:30:00.000Z,110,2022-02-18T07:40:27.843Z,45.44578,100,-60.95387,100,7.5,100,1.8,100,12.6,100,0.0,100,2.8,100,,-1,,-1,,-1,,-1,,-1,,-1,,-1,,-1,1009.3,100,,-1,,-1,,-1,4,100,8,1,-3.9,1,1009.3,1,1009.3,100,1009.3,100,,-10,,100,,-10,,100,,-10,,100
2022-02-18T07:40:00Z,44488,9302000,EAST CHEDABUCTO BAY,0,45.445,-60.9538,18,2022-02-18T07:40:00.000Z,110,2022-02-18T07:45:24.760Z,45.44578,100,-60.95385,100,8.1,100,1.8,100,12.5,100,0.0,100,2.8,100,,-1,,-1,,-1,,-1,,-1,,-1,,-1,,-1,1008.8,100,,-1,,-1,,-1,4,100,8,1,-4.9,1,1008.8,1,1008.8,100,1008.8,100,,-10,,100,,-10,,100,,-10,,100
2022-02-18T07:50:00Z,44488,9302000,EAST CHEDABUCTO BAY,0,45.445,-60.9538,18,2022-02-18T07:50:00.000Z,110,2022-02-18T07:55:33.755Z,45.44578,100,-60.95387,100,7.8,100,1.8,100,12.5,100,0.0,100,2.8,100,,-1,,-1,,-1,,-1,,-1,,-1,,-1,,-1,1008.5,100,,-1,,-1,,-1,4,100,8,1,-5.4,1,1008.5,1,1008.5,100,1008.5,100,,-10,,100,,-10,,100,,-10,,100
2022-02-18T08:00:00Z,44488,9302000,EAST CHEDABUCTO BAY,0,45.445,-60.9538,18,2022-02-18T08:00:00.000Z,108,2022-02-18T08:05:40.093Z,45.44582,100,-60.953869999999995,100,8.0,100,1.8,100,12.5,100,0.0,100,2.8,100,1.0,100,2.6,100,4.8,100,1.6,100,2.0,100,5.0,100,4.3,100,3.9,100,1008.0,100,,-1,,-1,,-1,4,100,8,1,-5.8,1,1008.0,1,1008.0,100,1008.0,100,,-10,,100,,-10,,100,,-10,,100
2022-02-18T08:10:00Z,44488,9302000,EAST CHEDABUCTO BAY,0,45.445,-60.9538,18,2022-02-18T08:10:00.000Z,110,2022-02-18T08:18:48.386Z,45.44587,100,-60.95387,100,8.4,100,1.8,100,12.6,100,0.0,100,2.8,100,,-1,,-1,,-1,,-1,,-1,,-1,,-1,,-1,1007.6,100,,-1,,-1,,-1,4,100,8,1,-6.0,1,1007.6,1,1007.6,100,1007.6,100,,-10,,100,,-10,,100,,-10,,100
2022-02-18T08:20:00Z,44488,9302000,EAST CHEDABUCTO BAY,0,45.445,-60.9538,18,2022-02-18T08:20:00.000Z,110,2022-02-18T08:25:49.288Z,45.4458,100,-60.95388000000001,100,8.4,100,1.8,100,12.5,100,0.0,100,2.8,100,,-1,,-1,,-1,,-1,,-1,,-1,,-1,,-1,1007.5,100,,-1,,-1,,-1,4,100,8,1,-5.7,1,1007.5,1,1007.5,100,1007.5,100,,-10,,100,,-10,,100,,-10,,100
2022-02-18T08:30:00Z,44488,9302000,EAST CHEDABUCTO BAY,0,45.445,-60.9538,18,2022-02-18T08:30:00.000Z,110,2022-02-18T08:35:50.257Z,45.44582,100,-60.95388000000001,100,8.3,100,1.8,100,12.6,100,0.0,100,2.8,100,,-1,,-1,,-1,,-1,,-1,,-1,,-1,,-1,1007.4,100,,-1,,-1,,-1,4,100,7,1,-5.5,1,1007.4,1,1007.4,100,1007.4,100,,-10,,100,,-10,,100,,-10,,100
2022-02-18T08:40:00Z,44488,9302000,EAST CHEDABUCTO BAY,0,45.445,-60.9538,18,2022-02-18T08:40:00.000Z,110,2022-02-18T08:45:49.595Z,45.44583,100,-60.953869999999995,100,8.2,100,1.8,100,12.5,100,0.0,100,2.8,100,,-1,,-1,,-1,,-1,,-1,,-1,,-1,,-1,1007.2,100,,-1,,-1,,-1,4,100,6,1,-5.3,1,1007.2,1,1007.2,100,1007.2,100,,-10,,100,,-10,,100,,-10,,100
2022-02-18T08:50:00Z,44488,9302000,EAST CHEDABUCTO BAY,0,45.445,-60.9538,18,2022-02-18T08:50:00.000Z,110,2022-02-18T08:54:53.611Z,45.44582,100,-60.9539,100,8.5,100,1.8,100,12.5,100,0.0,100,2.8,100,,-1,,-1,,-1,,-1,,-1,,-1,,-1,,-1,1006.7,100,,-1,,-1,,-1,4,100,6,1,-5.6,1,1006.7,1,1006.7,100,1006.7,100,,-10,,100,,-10,,100,,-10,,100
2022-02-18T09:00:00Z,44488,9302000,EAST CHEDABUCTO BAY,0,45.445,-60.9538,18,2022-02-18T09:00:00.000Z,108,2022-02-18T09:04:55.381Z,45.44585,100,-60.95385,100,8.9,100,1.8,100,12.5,100,0.0,100,2.7,100,1.1,100,2.8,100,4.6,100,1.7,100,2.1,100,4.6,100,4.3,100,4.3,100,1006.2,100,,-1,,-1,,-1,4,100,6,1,-5.9,1,1006.2,1,1006.2,100,1006.1,100,,-10,,100,,-10,,100,,-10,,100
2022-02-18T09:10:00Z,44488,9302000,EAST CHEDABUCTO BAY,0,45.445,-60.9538,18,2022-02-18T09:10:00.000Z,110,2022-02-18T09:17:52.217Z,45.44583,100,-60.95392,100,8.6,100,1.8,100,12.5,100,0.0,100,2.7,100,,-1,,-1,,-1,,-1,,-1,,-1,,-1,,-1,1005.8,100,,-1,,-1,,-1,4,100,6,1,-5.9,1,1005.8,1,1005.8,100,1005.8,100,,-10,,100,,-10,,100,,-10,,100
2022-02-18T09:20:00Z,44488,9302000,EAST CHEDABUCTO BAY,0,45.445,-60.9538,18,2022-02-18T09:20:00.000Z,110,2022-02-18T09:24:55.667Z,45.44585,100,-60.95388000000001,100,8.4,100,1.8,100,12.5,100,0.0,100,2.7,100,,-1,,-1,,-1,,-1,,-1,,-1,,-1,,-1,1005.6,100,,-1,,-1,,-1,4,100,8,1,-5.7,1,1005.6,1,1005.6,100,1005.6,100,,-10,,100,,-10,,100,,-10,,100
2022-02-18T09:30:00Z,44488,9302000,EAST CHEDABUCTO BAY,0,45.445,-60.9538,18,2022-02-18T09:30:00.000Z,110,2022-02-18T09:34:54.581Z,45.44582,100,-60.95385,100,8.1,100,1.9,100,12.5,100,0.0,100,2.7,100,,-1,,-1,,-1,,-1,,-1,,-1,,-1,,-1,1005.4,100,,-1,,-1,,-1,4,100,8,1,-5.7,1,1005.4,1,1005.4,100,1005.4,100,,-10,,100,,-10,,100,,-10,,100
2022-02-18T09:40:00Z,44488,9302000,EAST CHEDABUCTO BAY,0,45.445,-60.9538,18,2022-02-18T09:40:00.000Z,110,2022-02-18T09:44:56.586Z,45.44578,100,-60.953869999999995,100,8.0,100,1.9,100,12.5,100,0.0,100,2.7,100,,-1,,-1,,-1,,-1,,-1,,-1,,-1,,-1,1005.1,100,,-1,,-1,,-1,4,100,8,1,-5.5,1,1005.1,1,1005.1,100,1005.1,100,,-10,,100,,-10,,100,,-10,,100
2022-02-18T09:50:00Z,44488,9302000,EAST CHEDABUCTO BAY,0,45.445,-60.9538,18,2022-02-18T09:50:00.000Z,110,2022-02-18T09:55:03.427Z,45.44582,100,-60.95383,100,8.1,100,1.9,100,12.5,100,0.0,100,2.7,100,,-1,,-1,,-1,,-1,,-1,,-1,,-1,,-1,1004.8,100,,-1,,-1,,-1,4,100,8,1,-5.6,1,1004.8,1,1004.8,100,1004.8,100,,-10,,100,,-10,,100,,-10,,100
2022-02-18T10:00:00Z,44488,9302000,EAST CHEDABUCTO BAY,0,45.445,-60.9538,18,2022-02-18T10:00:00.000Z,108,2022-02-18T10:05:10.306Z,45.44585,100,-60.953869999999995,100,8.2,100,1.9,100,12.5,100,0.0,100,2.7,100,1.2,100,3.4,100,5.1,100,1.8,100,2.2,100,4.9,100,4.5,100,28.6,0,1004.4,100,,-1,,-1,,-1,4,100,6,1,-5.7,1,1004.4,1,1004.4,100,1004.4,100,,-10,,100,,-10,,100,,-10,,100
2022-02-18T10:10:00Z,44488,9302000,EAST CHEDABUCTO BAY,0,45.445,-60.9538,18,2022-02-18T10:10:00.000Z,110,2022-02-18T10:18:10.383Z,45.44587,100,-60.95385,100,8.3,100,1.9,100,12.5,100,0.0,100,2.7,100,,-1,,-1,,-1,,-1,,-1,,-1,,-1,,-1,1004.0,100,,-1,,-1,,-1,4,100,6,1,-5.9,1,1004.0,1,1004.0,100,1004.0,100,,-10,,100,,-10,,100,,-10,,100
2022-02-18T10:20:00Z,44488,9302000,EAST CHEDABUCTO BAY,0,45.445,-60.9538,18,2022-02-18T10:20:00.000Z,110,2022-02-18T10:25:12.931Z,45.44585,100,-60.9539,100,8.4,100,1.9,100,12.5,100,0.0,100,2.7,100,,-1,,-1,,-1,,-1,,-1,,-1,,-1,,-1,1003.6,100,,-1,,-1,,-1,4,100,6,1,-6.1,1,1003.6,1,1003.6,100,1003.6,100,,-10,,100,,-10,,100,,-10,,100
2022-02-18T10:30:00Z,44488,9302000,EAST CHEDABUCTO BAY,0,45.445,-60.9538,18,2022-02-18T10:30:00.000Z,110,2022-02-18T10:35:03.326Z,45.44585,100,-60.9539,100,8.7,100,1.9,100,12.5,100,0.0,100,2.7,100,,-1,,-1,,-1,,-1,,-1,,-1,,-1,,-1,1003.1,100,,-1,,-1,,-1,4,100,8,1,-6.2,1,1003.1,1,1003.1,100,1003.1,100,,-10,,100,,-10,,100,,-10,,100
2022-02-18T10:40:00Z,44488,9302000,EAST CHEDABUCTO BAY,0,45.445,-60.9538,18,2022-02-18T10:40:00.000Z,110,2022-02-18T10:45:15.079Z,45.445879999999995,100,-60.95388000000001,100,8.8,100,1.9,100,12.5,100,0.0,100,2.7,100,,-1,,-1,,-1,,-1,,-1,,-1,,-1,,-1,1003.0,100,,-1,,-1,,-1,4,100,8,1,-5.8,1,1003.0,1,1003.0,100,1003.0,100,,-10,,100,,-10,,100,,-10,,100